Location: Strawberry
(33.0916°N, 80.0306°W)
Time: 11:19:36
(UTC+00:00)

Hubble Space Telescope - Visible Passes

Search period start: 28 November 2022 00:00
Search period end: 08 December 2022 00:00
Orbit: 530 x 534 km, 28.5° (Epoch: 27 November)

Date Brightness Start Highest point End Pass type
(mag) Time Alt. Az. Time Alt. Az. Time Alt. Az.
05 Dec 3.7 10:26:20 10° S 10:27:18 11° SSE 10:28:17 10° SE visible
06 Dec 3.4 10:12:34 10° S 10:14:34 13° SSE 10:16:34 10° SE visible
07 Dec 3.1 10:00:54 15° S 10:01:50 16° SSE 10:04:23 10° ESE visible
07 Dec 2.2 11:38:40 10° WSW 11:42:25 35° S 11:46:10 10° ESE visible
